Roseau, MN

2:34 AM CDT on April 20, 2018 (GMT -0500)
Roseau Municipal-Billberg

Weather History for KROX - December, 2012

Change the Weather History Date:

Wednesday, December 5, 2012

  Actual Average Record
Temperature  
Mean Temperature 22 °F -  
Max Temperature 35 °F 24 °F 42 °F (2015)
Min Temperature 8 °F 6 °F -23 °F (1955)
Degree Days  
Heating Degree Days 44    
Moisture  
Dew Point 15 °F    
Average Humidity 69    
Maximum Humidity 85    
Minimum Humidity 55    
Precipitation  
Precipitation 0.00 in - - ()
Sea Level Pressure  
Sea Level Pressure 29.96 in    
Wind  
Wind Speed 10 mph (SSE)    
Max Wind Speed 21 mph    
Max Gust Speed 25 mph    
Visibility 10 miles    
Events Rain    
Averages and records for this station are not official NWS values.
T = Trace of Precipitation, MM = Missing Value Source: NWS Daily Summary

Daily Weather History Graph

Daily Weather History Graph

Search for Another Location

Airport or City:

Astronomy

Dec. 05, 2012 Rise Set
Actual Time 8:00 AM CST 4:26 PM CST
Civil Twilight 7:23 AM CST 5:03 PM CST
Nautical Twilight 6:43 AM CST 5:43 PM CST
Astronomical Twilight 6:05 AM CST 6:21 PM CST
Moon 11:43 PM CST (12/5) 12:00 PM CST (12/5)
Length of Visible Light 9h 39m
Length of Day
8h 26m
Waning Gibbous, 59% of the Moon is Illuminated
Dec 5
Waning Gibbous
Dec 6
Last Quarter
Dec 13
New
Dec 19
First Quarter
Dec 28
Full

Hourly Weather History & Observations

Time (CST) Temp. Windchill Dew Point Humidity Pressure Visibility Wind Dir Wind Speed Gust Speed Precip Events Conditions
12:14 AM 8.6 °F 2.0 °F 3.2 °F 79% 30.35 in 10.0 mi SSE 3.5 mph - N/A   Clear
12:35 AM 8.6 °F 2.0 °F 3.2 °F 79% 30.35 in 10.0 mi South 3.5 mph - N/A   Clear
12:54 AM 8.6 °F 2.0 °F 3.2 °F 79% 30.34 in 10.0 mi SSE 3.5 mph - N/A   Clear
1:14 AM 8.6 °F 2.0 °F 3.2 °F 79% 30.34 in 10.0 mi SSE 3.5 mph - N/A   Clear
1:54 AM 8.6 °F - 3.2 °F 79% 30.34 in 10.0 mi Calm Calm - N/A   Clear
2:14 AM 10.4 °F 0.8 °F 5.0 °F 79% 30.33 in 10.0 mi SE 5.8 mph - N/A   Clear
2:35 AM 10.4 °F -1.5 °F 6.8 °F 85% 30.32 in 10.0 mi SE 8.1 mph - N/A   Clear
2:54 AM 12.2 °F 1.7 °F 6.8 °F 79% 30.31 in 10.0 mi SE 6.9 mph - N/A   Clear
3:14 AM 12.2 °F 2.9 °F 6.8 °F 79% 30.29 in 10.0 mi SE 5.8 mph - N/A   Clear
3:35 AM 10.4 °F 2.2 °F 6.8 °F 85% 30.29 in 10.0 mi SE 4.6 mph - N/A   Clear
3:54 AM 12.2 °F 2.9 °F 6.8 °F 79% 30.28 in 10.0 mi SE 5.8 mph - N/A   Clear
4:14 AM 12.2 °F 1.7 °F 6.8 °F 79% 30.27 in 10.0 mi SE 6.9 mph - N/A   Clear
4:35 AM 14.0 °F 5.1 °F 8.6 °F 79% 30.26 in 10.0 mi SE 5.8 mph - N/A   Clear
4:54 AM 15.8 °F 6.1 °F 8.6 °F 73% 30.26 in 10.0 mi SE 6.9 mph - N/A   Clear
5:14 AM 15.8 °F 3.4 °F 10.4 °F 79% 30.25 in 10.0 mi SSE 10.4 mph - N/A   Clear
5:34 AM 15.8 °F 2.1 °F 10.4 °F 79% 30.24 in 10.0 mi SSE 12.7 mph - N/A   Clear
5:54 AM 15.8 °F 0.9 °F 10.4 °F 79% 30.23 in 10.0 mi SE 15.0 mph - N/A   Clear
6:15 AM 15.8 °F 1.4 °F 10.4 °F 79% 30.22 in 10.0 mi SE 13.8 mph - N/A   Clear
6:34 AM 15.8 °F 0.9 °F 10.4 °F 79% 30.20 in 10.0 mi SSE 15.0 mph 20.7 mph N/A   Clear
6:54 AM 17.6 °F 3.7 °F 10.4 °F 73% 30.19 in 10.0 mi SE 13.8 mph - N/A   Clear
8:34 AM 17.6 °F 10.7 °F 10.4 °F 73% 30.17 in 10.0 mi SE 4.6 mph - N/A   Clear
8:54 AM 17.6 °F 10.7 °F 10.4 °F 73% 30.16 in 10.0 mi SE 4.6 mph - N/A   Clear
9:14 AM 17.6 °F 6.4 °F 12.2 °F 79% 30.14 in 10.0 mi SE 9.2 mph - N/A   Clear
9:34 AM 19.4 °F 8.6 °F 12.2 °F 74% 30.12 in 10.0 mi SE 9.2 mph - N/A   Clear
9:55 AM 19.4 °F 6.6 °F 12.2 °F 74% 30.10 in 10.0 mi SE 12.7 mph - N/A   Clear
10:14 AM 21.2 °F 7.8 °F 14.0 °F 74% 30.09 in 10.0 mi SE 15.0 mph - N/A   Clear
10:34 AM 23.0 °F 8.3 °F 14.0 °F 68% 30.07 in 10.0 mi SSE 19.6 mph - N/A   Clear
10:55 AM 24.8 °F 11.5 °F 15.8 °F 69% 30.05 in 10.0 mi SSE 17.3 mph - N/A   Clear
11:14 AM 26.6 °F 13.1 °F 15.8 °F 64% 30.02 in 10.0 mi SSE 19.6 mph 23.0 mph N/A   Clear
11:34 AM 26.6 °F 13.4 °F 15.8 °F 64% 29.99 in 10.0 mi SSE 18.4 mph - N/A   Clear
11:55 AM 28.4 °F 15.4 °F 15.8 °F 59% 29.98 in 10.0 mi SSE 19.6 mph 25.3 mph N/A   Clear
12:14 PM 30.2 °F 17.8 °F 15.8 °F 55% 29.96 in 10.0 mi SSE 19.6 mph 23.0 mph N/A   Clear
12:35 PM 30.2 °F 18.5 °F 15.8 °F 55% 29.94 in 10.0 mi SSE 17.3 mph 25.3 mph N/A   Clear
12:54 PM 30.2 °F 18.5 °F 17.6 °F 60% 29.92 in 10.0 mi SSE 17.3 mph 24.2 mph N/A   Clear
1:14 PM 30.2 °F 17.4 °F 17.6 °F 60% 29.91 in 10.0 mi SSE 20.7 mph 25.3 mph N/A   Clear
1:35 PM 30.2 °F 19.8 °F 15.8 °F 55% 29.90 in 10.0 mi SSE 13.8 mph 21.9 mph N/A   Clear
1:54 PM 30.2 °F 18.5 °F 15.8 °F 55% 29.88 in 10.0 mi SSE 17.3 mph 23.0 mph N/A   Clear
2:14 PM 30.2 °F 19.3 °F 17.6 °F 60% 29.87 in 10.0 mi SSE 15.0 mph - N/A   Clear
2:34 PM 30.2 °F 19.3 °F 17.6 °F 60% 29.85 in 10.0 mi SSE 15.0 mph - N/A   Clear
2:54 PM 30.2 °F 18.9 °F 17.6 °F 60% 29.84 in 10.0 mi SSE 16.1 mph - N/A   Clear
3:15 PM 28.4 °F 17.5 °F 17.6 °F 64% 29.82 in 10.0 mi SSE 13.8 mph - N/A   Clear
3:34 PM 28.4 °F 19.1 °F 17.6 °F 64% 29.83 in 10.0 mi SSE 10.4 mph - N/A   Clear
3:54 PM 28.4 °F 17.0 °F 17.6 °F 64% 29.81 in 10.0 mi SSE 15.0 mph 18.4 mph N/A   Clear
4:15 PM 28.4 °F 17.5 °F 17.6 °F 64% 29.79 in 10.0 mi SSE 13.8 mph - N/A   Clear
4:34 PM 28.4 °F 17.5 °F 17.6 °F 64% 29.79 in 10.0 mi SSE 13.8 mph 18.4 mph N/A   Clear
4:54 PM 28.4 °F 18.0 °F 17.6 °F 64% 29.78 in 10.0 mi SSE 12.7 mph - N/A   Clear
5:14 PM 28.4 °F 16.6 °F 17.6 °F 64% 29.76 in 10.0 mi SSE 16.1 mph - N/A   Clear
5:35 PM 28.4 °F 17.5 °F 17.6 °F 64% 29.75 in 10.0 mi SSE 13.8 mph - N/A   Scattered Clouds
6:14 PM 28.4 °F 16.6 °F 17.6 °F 64% 29.74 in 10.0 mi SSE 16.1 mph - N/A   Clear
6:35 PM 28.4 °F 17.5 °F 17.6 °F 64% 29.71 in 10.0 mi SSE 13.8 mph - N/A   Clear
6:54 PM 30.2 °F 19.8 °F 17.6 °F 60% 29.70 in 10.0 mi SSE 13.8 mph - N/A   Clear
7:14 PM 30.2 °F 18.9 °F 17.6 °F 60% 29.68 in 10.0 mi SSE 16.1 mph - N/A   Scattered Clouds
7:34 PM 30.2 °F 18.5 °F 19.4 °F 64% 29.68 in 10.0 mi South 17.3 mph 21.9 mph N/A   Scattered Clouds
7:54 PM 30.2 °F 19.8 °F 19.4 °F 64% 29.67 in 10.0 mi South 13.8 mph - N/A   Scattered Clouds
8:14 PM 32.0 °F 22.5 °F 19.4 °F 60% 29.67 in 10.0 mi South 12.7 mph 18.4 mph N/A   Scattered Clouds
8:34 PM 32.0 °F 22.1 °F 21.2 °F 64% 29.65 in 10.0 mi South 13.8 mph - N/A   Scattered Clouds
8:55 PM 32.0 °F 22.1 °F 21.2 °F 64% 29.64 in 10.0 mi South 13.8 mph - N/A   Clear
9:14 PM 33.8 °F 23.5 °F 21.2 °F 60% 29.63 in 10.0 mi South 16.1 mph - N/A   Clear
9:34 PM 33.8 °F 23.9 °F 21.2 °F 60% 29.62 in 10.0 mi South 15.0 mph 21.9 mph N/A   Scattered Clouds
9:55 PM 33.8 °F 23.5 °F 23.0 °F 65% 29.62 in 10.0 mi South 16.1 mph - N/A   Clear
10:14 PM 33.8 °F 23.2 °F 24.8 °F 70% 29.60 in 10.0 mi South 17.3 mph 23.0 mph N/A   Clear
10:34 PM 33.8 °F 23.5 °F 24.8 °F 70% 29.59 in 10.0 mi South 16.1 mph 19.6 mph N/A   Clear
10:55 PM 35.6 °F 25.9 °F 24.8 °F 65% 29.59 in 10.0 mi SSW 16.1 mph 20.7 mph N/A   Clear
11:14 PM 35.6 °F 25.5 °F 24.8 °F 65% 29.58 in 10.0 mi South 17.3 mph - N/A   Scattered Clouds
11:34 PM 35.6 °F 25.9 °F 24.8 °F 65% 29.57 in 10.0 mi SSW 16.1 mph - N/A   Scattered Clouds
11:54 PM 35.6 °F 25.2 °F 24.8 °F 65% 29.56 in 10.0 mi South 18.4 mph 23.0 mph N/A Rain Rain